EW8618 Weather Reports


time (UTC)temp
C
wind
direction
speed
KPH
gust
KPH
rain 1hr
cm
rain 24hr
cm
rain mn
cm
humidity
%
barometer
mb
20260503210056 16 244 0.0 0.0 0.00 0.00 0.00 64 1008.5
20260503204556 16 241 0.0 0.0 0.00 0.00 0.00 65 1008.4
20260503203107 16 243 0.0 0.0 0.00 0.00 0.00 65 1008.6
20260503201556 16 226 0.0 0.0 0.00 0.00 0.00 63 1008.6
20260503200053 15 274 0.0 0.0 0.00 0.00 0.00 68 1008.7
20260503194556 15 272 0.0 0.0 0.00 0.00 0.00 66 1008.8
20260503193053 15 233 0.0 0.0 0.00 0.00 0.00 67 1008.8
20260503191552 15 286 1.6 0.0 0.00 0.00 0.00 65 1008.8
20260503190050 16 215 1.6 0.0 0.00 0.00 0.00 65 1008.8
20260503184550 16 134 3.2 0.0 0.00 0.00 0.00 61 1008.7
20260503183048 16 210 3.2 0.0 0.00 0.00 0.00 67 1008.8
20260503181549 15 295 0.0 0.0 0.00 0.00 0.00 70 1008.8
20260503180040 14 250 1.6 0.0 0.00 0.00 0.00 72 1008.9
20260503174540 14 212 1.6 0.0 0.00 0.00 0.00 74 1008.8
20260503173051 13 274 3.2 0.0 0.00 0.00 0.00 77 1008.7
20260503171538 12 298 1.6 0.0 0.00 0.00 0.00 84 1008.7
20260503081547 11 255 0.0 0.0 0.00 0.00 0.00 84 1007.4
20260503071542 11 255 0.0 0.0 0.00 0.00 0.00 83 1007.6
20260503054537 11 252 0.0 0.0 0.00 0.00 0.00 83 1007.9
20260503053039 11 251 0.0 0.0 0.00 0.00 0.00 82 1007.9
20260503051533 11 250 0.0 0.0 0.00 0.00 0.00 82 1008.0
20260503050033 12 249 0.0 0.0 0.00 0.00 0.00 81 1008.0
20260503044535 12 145 0.0 0.0 0.00 0.00 0.00 81 1007.8
20260503043032 12 145 0.0 0.0 0.00 0.00 0.00 80 1007.7
20260503041533 12 145 0.0 0.0 0.00 0.00 0.00 80 1007.5
20260503040034 12 145 0.0 0.0 0.00 0.00 0.00 81 1007.5
20260503034531 12 145 0.0 0.0 0.00 0.00 0.00 80 1007.3
20260503031535 13 120 0.0 0.0 0.00 0.00 0.00 79 1007.0
20260503030030 13 126 0.0 0.0 0.00 0.00 0.00 78 1006.8
20260503024529 13 344 0.0 0.0 0.00 0.00 0.00 78 1006.6
20260503023042 14 344 1.6 0.0 0.00 0.00 0.00 77 1006.5
20260503021529 14 81 0.0 0.0 0.00 0.00 0.00 76 1006.4
20260503020028 15 95 0.0 0.0 0.00 0.00 0.00 76 1006.4
20260503014526 15 115 0.0 0.0 0.00 0.00 0.00 75 1006.5
20260503013027 15 126 0.0 0.0 0.00 0.00 0.00 74 1006.5
20260503011525 16 122 0.0 0.0 0.00 0.00 0.00 72 1006.5
20260503010031 16 161 0.0 0.0 0.00 0.00 0.00 72 1006.5
20260503004525 16 336 1.6 0.0 0.00 0.00 0.00 72 1006.4
20260503003024 16 94 1.6 0.0 0.00 0.00 0.00 70 1006.5
20260503001524 17 107 1.6 0.0 0.00 0.00 0.00 69 1006.5
20260503000026 17 127 1.6 0.0 0.00 0.00 0.00 70 1006.5
20260502234523 17 190 1.6 0.0 0.00 0.00 0.00 70 1006.6
20260502233020 17 360 0.0 0.0 0.00 0.00 0.00 71 1006.8
20260502231522 17 277 0.0 0.0 0.00 0.00 0.00 70 1006.8
20260502230018 18 263 1.6 0.0 0.00 0.00 0.00 68 1007.0
20260502224517 18 300 0.0 0.0 0.00 0.00 0.00 68 1007.2
20260502223015 18 130 1.6 0.0 0.00 0.00 0.00 68 1007.3
20260502221512 18 317 0.0 0.0 0.00 0.00 0.00 68 1007.7
20260502220012 18 130 3.2 0.0 0.00 0.00 0.00 69 1007.8
20260502214510 18 61 1.6 0.0 0.00 0.00 0.00 67 1007.9
20260502213013 18 309 1.6 0.0 0.00 0.00 0.00 68 1008.1
20260502211509 18 84 1.6 0.0 0.00 0.00 0.00 67 1008.1